Location: Anjeux
(47.8815°N, 6.2076°E)
Time: 11:14:22
(UTC+00:00)

AO-27 - Pass Details

Date: 11 December 2021
Orbit: 784 x 798 km, 98.9° (Epoch: 24 January)

Event Time Altitude Azimuth Distance (km) Brightness Sun altitude
Rises 06:24:33 0° 22° (NNE) 3,311 10.9 -8.1°
Reaches altitude 10° 06:27:06 10° 31° (NNE) 2,375 10.2 -7.7°
Maximum altitude 06:31:52 34° 96° (E) 1,277 9.6 -7.0°
Drops below altitude 10° 06:36:35 10° 162° (SSE) 2,351 10.9 -6.3°
Sets 06:39:05 0° 171° (S) 3,273 11.4 -5.9°
